Location: Beadle
(51.4667°N, 109.0000°W)
Time: 17:37:44
(UTC+00:00)

O/OREOS (USA 219) - Pass Details

Date: 26 June 2022
Orbit: 621 x 646 km, 72.0° (Epoch: 22 May)

Event Time Altitude Azimuth Distance (km) Brightness Sun altitude
Rises 08:40:03 0° 329° (NNW) 2,962 ? -13.1°
Reaches altitude 10° 08:42:20 10° 327° (NNW) 2,050 ? -13.0°
Maximum altitude 08:46:55 68° 246° (WSW) 700 ? -12.7°
Enters shadow 08:51:10 12° 164° (SSE) 1,919 ? -12.5°
